Tracking 20942 objects as of 15-Jul-2020
HD Live streaming from Space Station
objects crossing your sky now

TITAN 3C TRANSTAGE DEB

Track TITAN 3C TRANSTAGE DEB now!


NORAD ID: 26525
Int'l Code: 1965-108AL
Perigee: 589.6 km
Apogee: 29,037.3 km
Inclination: 26.6 °
Period: 511.4 minutes
Semi major axis: 21184 km
RCS: 0.1939 m2 (medium)
Launch date: December 21, 1965
Source: United States (US)
Launch site: AIR FORCE EASTERN TEST RANGE (AFETR)

Note: This is SATELLITE DEBRIS
aabbcc
Your satellite tracking list
Your tracking list is empty




NASA's NSSDC Master Catalog

Two Line Element Set (TLE):
1 26525U 65108AL  20195.30462262 -.00000004 +00000-0 +11839-2 0  9991
2 26525 026.5901 052.5396 6714302 198.6255 355.1738 02.81564288209573
Source of the keplerian elements: AFSPC